FW8918 Weather Reports


time (UTC)temp
F
wind
direction
speed
knots
gust
knots
rain 1hr
in
rain 24hr
in
rain mn
in
humidity
%
barometer
mb
20260506124530 58 74 1.7 7.8 0.00 0.00 0.00 54 1011.8
20260506123030 59 42 0.9 5.2 0.00 0.00 0.00 54 1011.9
20260506121529 58 114 3.5 7.0 0.00 0.00 0.00 54 1011.8
20260506120028 58 354 2.6 6.1 0.00 0.00 0.00 53 1011.8
20260506114534 57 43 2.6 7.0 0.00 0.00 0.00 54 1011.8
20260506113034 56 63 1.7 3.5 0.00 0.00 0.00 56 1011.9
20260506111530 57 295 1.7 5.2 0.00 0.00 0.00 55 1011.8
20260506110030 57 30 1.7 7.0 0.00 0.00 0.00 55 1012.0
20260506104526 57 0 1.7 7.0 0.00 0.00 0.00 55 1012.0
20260506103032 56 0 0.9 5.2 0.00 0.00 0.00 55 1012.2
20260506101530 56 75 0.9 4.3 0.00 0.00 0.00 58 1012.3
20260506100033 55 18 1.7 7.0 0.00 0.00 0.00 62 1012.4
20260506094528 54 63 0.0 5.2 0.00 0.00 0.00 62 1012.4
20260506093029 53 105 1.7 4.3 0.00 0.00 0.00 62 1012.5
20260506091530 52 131 0.0 8.7 0.00 0.00 0.00 64 1012.6
20260506090028 52 64 2.6 7.0 0.00 0.00 0.00 63 1012.6
20260506084530 52 62 0.9 5.2 0.00 0.00 0.00 64 1012.5
20260506083031 52 98 0.9 7.0 0.00 0.00 0.00 64 1012.6
20260506081532 51 62 2.6 6.1 0.00 0.00 0.00 64 1012.4
20260506073033 50 68 3.5 6.1 0.00 0.00 0.00 67 1012.4
20260506071534 49 46 1.7 7.0 0.00 0.00 0.00 71 1012.2
20260506061537 44 49 1.7 5.2 0.00 0.00 0.00 83 1012.2
20260506044530 38 51 1.7 4.3 0.00 0.00 0.00 89 1012.2
20260506043030 37 45 1.7 4.3 0.00 0.00 0.00 89 1012.2
20260506041537 37 50 2.6 4.3 0.00 0.00 0.00 89 1012.2
20260506040031 37 25 1.7 3.5 0.00 0.00 0.00 89 1012.3
20260506034530 36 58 0.9 3.5 0.00 0.00 0.00 89 1012.4
20260506033028 37 50 1.7 4.3 0.00 0.00 0.00 89 1012.5
20260506031537 37 46 0.9 2.6 0.00 0.00 0.00 88 1012.6
20260506030027 37 55 0.9 2.6 0.00 0.00 0.00 88 1012.8
20260506024539 38 49 1.7 4.3 0.00 0.00 0.00 88 1013.0
20260506023032 38 57 0.9 3.5 0.00 0.00 0.00 88 1013.0
20260506021531 38 59 0.9 4.3 0.00 0.00 0.00 88 1013.0
20260506020028 38 60 0.9 2.6 0.00 0.00 0.00 87 1013.0
20260506014530 38 58 1.7 5.2 0.00 0.00 0.00 87 1013.0
20260506013031 38 52 1.7 4.3 0.00 0.00 0.00 87 1012.8
20260506011557 38 45 1.7 6.1 0.00 0.00 0.00 87 1012.9
20260506010031 39 47 1.7 5.2 0.00 0.00 0.00 86 1012.6
20260506004532 39 53 2.6 6.1 0.00 0.00 0.00 85 1012.5
20260506003030 40 49 1.7 5.2 0.00 0.00 0.00 85 1012.6
20260506001528 40 44 1.7 4.3 0.00 0.00 0.00 86 1012.6
20260506000045 40 1 1.7 4.3 0.00 0.00 0.00 85 1012.7
20260505234541 40 58 0.9 3.5 0.00 0.00 0.00 85 1012.9
20260505233033 40 67 1.7 5.2 0.00 0.00 0.00 85 1013.0
20260505231532 40 56 1.7 3.5 0.00 0.00 0.00 84 1013.1
20260505230050 41 57 1.7 4.3 0.00 0.00 0.00 84 1013.0
20260505224537 41 52 0.9 4.3 0.00 0.00 0.00 84 1013.1
20260505223029 41 45 0.9 2.6 0.00 0.00 0.00 85 1013.2
20260505221532 41 55 1.7 5.2 0.00 0.00 0.00 85 1013.2
20260505220031 42 66 0.9 3.5 0.00 0.00 0.00 84 1013.3
20260505214531 42 62 0.9 5.2 0.00 0.00 0.00 84 1013.3
20260505213030 42 79 0.9 3.5 0.00 0.00 0.00 84 1013.3
20260505211532 43 14 0.9 3.5 0.00 0.00 0.00 84 1013.2
20260505210031 43 25 0.0 1.7 0.00 0.00 0.00 83 1013.2
20260505204544 44 58 0.9 3.5 0.00 0.00 0.00 83 1013.2
20260505203028 44 63 0.0 2.6 0.00 0.00 0.00 83 1013.1
20260505201531 45 67 0.9 2.6 0.00 0.00 0.00 83 1013.1
20260505200030 45 0 0.9 6.1 0.00 0.00 0.00 82 1013.1
20260505194536 46 65 0.9 4.3 0.00 0.00 0.00 82 1012.9
20260505193106 46 53 0.9 5.2 0.00 0.00 0.00 80 1013.0
20260505191530 47 1 0.9 5.2 0.00 0.00 0.00 79 1012.8
20260505190035 48 38 0.9 4.3 0.00 0.00 0.00 77 1012.8
20260505184533 49 24 0.9 4.3 0.00 0.00 0.00 75 1012.7
20260505183028 50 327 0.9 6.1 0.00 0.00 0.00 73 1012.6
20260505181531 51 21 2.6 6.1 0.00 0.00 0.00 71 1012.7
20260505180038 52 352 1.7 6.1 0.00 0.00 0.00 71 1012.6
20260505174531 52 359 1.7 6.1 0.00 0.00 0.00 68 1012.4
20260505173029 53 35 1.7 7.8 0.00 0.00 0.00 68 1012.5
20260505171529 53 223 1.7 7.0 0.00 0.00 0.00 67 1012.5
20260505170028 53 53 1.7 8.7 0.00 0.00 0.00 67 1012.7
20260505164529 54 341 2.6 7.0 0.00 0.00 0.00 67 1012.6
20260505163028 54 340 2.6 7.8 0.00 0.00 0.00 66 1012.6
20260505161529 55 335 2.6 7.8 0.00 0.00 0.00 63 1012.5
20260505153027 55 294 2.6 7.8 0.00 0.00 0.00 61 1012.8
20260505151534 56 252 2.6 9.6 0.00 0.00 0.00 61 1012.7